Year,Month,Day,Hour,Minute,Value (Times are PST for temperature in C)
2014,10,12,00,00,8.20
2014,10,12,00,01,8.10
2014,10,12,00,02,8.10
2014,10,12,00,03,8.20
2014,10,12,00,04,8.10
2014,10,12,00,05,8.10
2014,10,12,00,06,8.00
2014,10,12,00,07,8.00
2014,10,12,00,08,8.00
2014,10,12,00,09,7.90
2014,10,12,00,10,7.90
2014,10,12,00,11,7.80
2014,10,12,00,12,7.80
2014,10,12,00,13,7.80
2014,10,12,00,14,7.80
2014,10,12,00,15,7.70
2014,10,12,00,16,7.70
2014,10,12,00,17,7.70
2014,10,12,00,18,7.70
2014,10,12,00,19,7.70
2014,10,12,00,20,7.60
2014,10,12,00,21,7.60
2014,10,12,00,22,7.60
2014,10,12,00,23,7.50
2014,10,12,00,24,7.50
2014,10,12,00,25,7.50
2014,10,12,00,26,7.40
2014,10,12,00,27,7.40
2014,10,12,00,28,7.40
2014,10,12,00,29,7.40
2014,10,12,00,30,7.40
2014,10,12,00,31,7.40
2014,10,12,00,32,7.40
2014,10,12,00,33,7.40
2014,10,12,00,34,7.40
2014,10,12,00,35,7.40
2014,10,12,00,36,7.40
2014,10,12,00,37,7.40
2014,10,12,00,38,7.40
2014,10,12,00,39,7.40
2014,10,12,00,40,7.40
2014,10,12,00,41,7.50
2014,10,12,00,42,7.50
2014,10,12,00,43,7.60
2014,10,12,00,44,7.60
2014,10,12,00,45,7.70
2014,10,12,00,46,7.80
2014,10,12,00,47,7.80
2014,10,12,00,48,7.80
2014,10,12,00,49,7.90
2014,10,12,00,50,7.80
2014,10,12,00,51,7.80
2014,10,12,00,52,7.80
2014,10,12,00,53,7.80
2014,10,12,00,54,7.70
2014,10,12,00,55,7.70
2014,10,12,00,56,7.60
2014,10,12,00,57,7.60
2014,10,12,00,58,7.50
2014,10,12,00,59,7.50
2014,10,12,01,00,7.40
2014,10,12,01,01,7.40
2014,10,12,01,02,7.40
2014,10,12,01,03,7.30
2014,10,12,01,04,7.30
2014,10,12,01,05,7.30
2014,10,12,01,06,7.20
2014,10,12,01,07,7.20
2014,10,12,01,08,7.20
2014,10,12,01,09,7.20
2014,10,12,01,10,7.20
2014,10,12,01,11,7.20
2014,10,12,01,12,7.10
2014,10,12,01,13,7.10
2014,10,12,01,14,7.10
2014,10,12,01,15,7.10
2014,10,12,01,16,7.10
2014,10,12,01,17,7.10
2014,10,12,01,18,7.10
2014,10,12,01,19,7.10
2014,10,12,01,20,7.00
2014,10,12,01,21,7.00
2014,10,12,01,22,7.00
2014,10,12,01,23,7.00
2014,10,12,01,24,7.00
2014,10,12,01,25,7.00
2014,10,12,01,26,7.00
2014,10,12,01,27,7.00
2014,10,12,01,28,7.00
2014,10,12,01,29,7.00
2014,10,12,01,30,7.00
2014,10,12,01,31,7.00
2014,10,12,01,32,7.00
2014,10,12,01,33,7.00
2014,10,12,01,34,7.00
2014,10,12,01,35,7.00
2014,10,12,01,36,6.90
2014,10,12,01,37,6.90
2014,10,12,01,38,6.90
2014,10,12,01,39,6.90
2014,10,12,01,40,6.90
2014,10,12,01,41,7.00
2014,10,12,01,42,7.00
2014,10,12,01,43,7.00
2014,10,12,01,44,7.00
2014,10,12,01,45,7.00
2014,10,12,01,46,7.00
2014,10,12,01,47,7.10
2014,10,12,01,48,7.10
2014,10,12,01,49,7.10
2014,10,12,01,50,7.10
2014,10,12,01,51,7.10
2014,10,12,01,52,7.10
2014,10,12,01,53,7.10
2014,10,12,01,54,7.10
2014,10,12,01,55,7.00
2014,10,12,01,56,7.00
2014,10,12,01,57,7.00
2014,10,12,01,58,6.90
2014,10,12,01,59,6.90
2014,10,12,02,00,7.00
2014,10,12,02,01,7.00
2014,10,12,02,02,7.10
2014,10,12,02,03,7.10
2014,10,12,02,04,7.20
2014,10,12,02,05,7.20
2014,10,12,02,06,7.20
2014,10,12,02,07,7.20
2014,10,12,02,08,7.20
2014,10,12,02,09,7.20
2014,10,12,02,10,7.20
2014,10,12,02,11,7.20
2014,10,12,02,12,7.20
2014,10,12,02,13,7.10
2014,10,12,02,14,7.10
2014,10,12,02,15,7.10
2014,10,12,02,16,7.00
2014,10,12,02,17,7.00
2014,10,12,02,18,6.90
2014,10,12,02,19,6.90
2014,10,12,02,20,6.80
2014,10,12,02,21,6.80
2014,10,12,02,22,6.80
2014,10,12,02,23,6.70
2014,10,12,02,24,6.70
2014,10,12,02,25,6.70
2014,10,12,02,26,6.70
2014,10,12,02,27,6.60
2014,10,12,02,28,6.60
2014,10,12,02,29,6.60
2014,10,12,02,30,6.50
2014,10,12,02,31,6.50
2014,10,12,02,32,6.40
2014,10,12,02,33,6.40
2014,10,12,02,34,6.40
2014,10,12,02,35,6.40
2014,10,12,02,36,6.30
2014,10,12,02,37,6.30
2014,10,12,02,38,6.30
2014,10,12,02,39,6.30
2014,10,12,02,40,6.30
2014,10,12,02,41,6.30
2014,10,12,02,42,6.30
2014,10,12,02,43,6.40
2014,10,12,02,44,6.50
2014,10,12,02,45,6.60
2014,10,12,02,46,6.60
2014,10,12,02,47,6.70
2014,10,12,02,48,6.80
2014,10,12,02,49,6.80
2014,10,12,02,50,6.80
2014,10,12,02,51,6.80
2014,10,12,02,52,6.80
2014,10,12,02,53,6.80
2014,10,12,02,54,6.80
2014,10,12,02,55,6.80
2014,10,12,02,56,6.70
2014,10,12,02,57,6.70
2014,10,12,02,58,6.70
2014,10,12,02,59,6.70
2014,10,12,03,00,6.70
2014,10,12,03,01,6.60
2014,10,12,03,02,6.60
2014,10,12,03,03,6.60
2014,10,12,03,04,6.50
2014,10,12,03,05,6.50
2014,10,12,03,06,6.50
2014,10,12,03,07,6.40
2014,10,12,03,08,6.40
2014,10,12,03,09,6.30
2014,10,12,03,10,6.30
2014,10,12,03,11,6.30
2014,10,12,03,12,6.30
2014,10,12,03,13,6.20
2014,10,12,03,14,6.20
2014,10,12,03,15,6.20
2014,10,12,03,16,6.20
2014,10,12,03,17,6.10
2014,10,12,03,18,6.10
2014,10,12,03,19,6.10
2014,10,12,03,20,6.10
2014,10,12,03,21,6.10
2014,10,12,03,22,6.10
2014,10,12,03,23,6.20
2014,10,12,03,24,6.20
2014,10,12,03,25,6.20
2014,10,12,03,26,6.30
2014,10,12,03,27,6.30
2014,10,12,03,28,6.30
2014,10,12,03,29,6.30
2014,10,12,03,30,6.30
2014,10,12,03,31,6.30
2014,10,12,03,32,6.30
2014,10,12,03,33,6.30
2014,10,12,03,34,6.30
2014,10,12,03,35,6.30
2014,10,12,03,36,6.30
2014,10,12,03,37,6.40
2014,10,12,03,38,6.50
2014,10,12,03,39,6.50
2014,10,12,03,40,6.60
2014,10,12,03,41,6.60
2014,10,12,03,42,6.60
2014,10,12,03,43,6.60
2014,10,12,03,44,6.50
2014,10,12,03,45,6.50
2014,10,12,03,46,6.50
2014,10,12,03,47,6.40
2014,10,12,03,48,6.40
2014,10,12,03,49,6.40
2014,10,12,03,50,6.30
2014,10,12,03,51,6.30
2014,10,12,03,52,6.30
2014,10,12,03,53,6.20
2014,10,12,03,54,6.20
2014,10,12,03,55,6.20
2014,10,12,03,56,6.10
2014,10,12,03,57,6.10
2014,10,12,03,58,6.10
2014,10,12,03,59,6.10
2014,10,12,04,00,6.10
2014,10,12,04,01,6.10
2014,10,12,04,02,6.10
2014,10,12,04,03,6.00
2014,10,12,04,04,6.00
2014,10,12,04,05,6.00
2014,10,12,04,06,6.00
2014,10,12,04,07,5.90
2014,10,12,04,08,5.90
2014,10,12,04,09,5.90
2014,10,12,04,10,5.90
2014,10,12,04,11,5.90
2014,10,12,04,12,5.90
2014,10,12,04,13,5.90
2014,10,12,04,14,5.90
2014,10,12,04,15,6.00
2014,10,12,04,16,6.00
2014,10,12,04,17,6.00
2014,10,12,04,18,6.00
2014,10,12,04,19,6.00
2014,10,12,04,20,6.00
2014,10,12,04,21,5.90
2014,10,12,04,22,5.90
2014,10,12,04,23,5.90
2014,10,12,04,24,5.90
2014,10,12,04,25,5.90
2014,10,12,04,26,5.90
2014,10,12,04,27,5.90
2014,10,12,04,28,6.00
2014,10,12,04,29,6.00
2014,10,12,04,30,6.00
2014,10,12,04,31,6.00
2014,10,12,04,32,6.00
2014,10,12,04,33,6.00
2014,10,12,04,34,6.00
2014,10,12,04,35,5.90
2014,10,12,04,36,5.90
2014,10,12,04,37,5.90
2014,10,12,04,38,5.90
2014,10,12,04,39,5.80
2014,10,12,04,40,5.80
2014,10,12,04,41,5.80
2014,10,12,04,42,5.80
2014,10,12,04,43,5.80
2014,10,12,04,44,5.80
2014,10,12,04,45,5.80
2014,10,12,04,46,5.80
2014,10,12,04,47,5.80
2014,10,12,04,48,5.90
2014,10,12,04,49,5.90
2014,10,12,04,50,6.10
2014,10,12,04,51,6.20
2014,10,12,04,52,6.30
2014,10,12,04,53,6.40
2014,10,12,04,54,6.40
2014,10,12,04,55,6.50
2014,10,12,04,56,6.50
2014,10,12,04,57,6.60
2014,10,12,04,58,6.60
2014,10,12,04,59,6.60
2014,10,12,05,00,6.60
2014,10,12,05,01,6.50
2014,10,12,05,02,6.50
2014,10,12,05,03,6.50
2014,10,12,05,04,6.40
2014,10,12,05,05,6.40
2014,10,12,05,06,6.30
2014,10,12,05,07,6.30
2014,10,12,05,08,6.30
2014,10,12,05,09,6.30
2014,10,12,05,10,6.40
2014,10,12,05,11,6.40
2014,10,12,05,12,6.40
2014,10,12,05,13,6.40
2014,10,12,05,14,6.40
2014,10,12,05,15,6.40
2014,10,12,05,16,6.40
2014,10,12,05,17,6.30
2014,10,12,05,18,6.30
2014,10,12,05,19,6.20
2014,10,12,05,20,6.20
2014,10,12,05,21,6.20
2014,10,12,05,22,6.10
2014,10,12,05,23,6.10
2014,10,12,05,24,6.10
2014,10,12,05,25,6.10
2014,10,12,05,26,6.00
2014,10,12,05,27,6.00
2014,10,12,05,28,6.00
2014,10,12,05,29,5.90
2014,10,12,05,30,5.90
2014,10,12,05,31,5.90
2014,10,12,05,32,5.90
2014,10,12,05,33,5.90
2014,10,12,05,34,5.90
2014,10,12,05,35,5.90
2014,10,12,05,36,6.00
2014,10,12,05,37,6.00
2014,10,12,05,38,6.10
2014,10,12,05,39,6.10
2014,10,12,05,40,6.20
2014,10,12,05,41,6.20
2014,10,12,05,42,6.30
2014,10,12,05,43,6.30
2014,10,12,05,44,6.30
2014,10,12,05,45,6.30
2014,10,12,05,46,6.30
2014,10,12,05,47,6.30
2014,10,12,05,48,6.30
2014,10,12,05,49,6.30
2014,10,12,05,50,6.20
2014,10,12,05,51,6.20
2014,10,12,05,52,6.20
2014,10,12,05,53,6.20
2014,10,12,05,54,6.20
2014,10,12,05,55,6.20
2014,10,12,05,56,6.10
2014,10,12,05,57,6.10
2014,10,12,05,58,6.10
2014,10,12,05,59,6.10
2014,10,12,06,00,6.10
2014,10,12,06,01,6.10
2014,10,12,06,02,6.10
2014,10,12,06,03,6.20
2014,10,12,06,04,6.20
2014,10,12,06,05,6.20
2014,10,12,06,06,6.20
2014,10,12,06,07,6.30
2014,10,12,06,08,6.30
2014,10,12,06,09,6.30
2014,10,12,06,10,6.30
2014,10,12,06,11,6.20
2014,10,12,06,12,6.20
2014,10,12,06,13,6.20
2014,10,12,06,14,6.20
2014,10,12,06,15,6.20
2014,10,12,06,16,6.20
2014,10,12,06,17,6.20
2014,10,12,06,18,6.30
2014,10,12,06,19,6.30
2014,10,12,06,20,6.40
2014,10,12,06,21,6.40
2014,10,12,06,22,6.50
2014,10,12,06,23,6.50
2014,10,12,06,24,6.50
2014,10,12,06,25,6.50
2014,10,12,06,26,6.50
2014,10,12,06,27,6.40
2014,10,12,06,28,6.40
2014,10,12,06,29,6.30
2014,10,12,06,30,6.30
2014,10,12,06,31,6.30
2014,10,12,06,32,6.30
2014,10,12,06,33,6.20
2014,10,12,06,34,6.20
2014,10,12,06,35,6.20
2014,10,12,06,36,6.20
2014,10,12,06,37,6.20
2014,10,12,06,38,6.10
2014,10,12,06,39,6.10
2014,10,12,06,40,6.10
2014,10,12,06,41,6.10
2014,10,12,06,42,6.10
2014,10,12,06,43,6.10
2014,10,12,06,44,6.10
2014,10,12,06,45,6.10
2014,10,12,06,46,6.20
2014,10,12,06,47,6.20
2014,10,12,06,48,6.30
2014,10,12,06,49,6.30
2014,10,12,06,50,6.30
2014,10,12,06,51,6.30
2014,10,12,06,52,6.40
2014,10,12,06,53,6.30
2014,10,12,06,54,6.30
2014,10,12,06,55,6.30
2014,10,12,06,56,6.30
2014,10,12,06,57,6.30
2014,10,12,06,58,6.30
2014,10,12,06,59,6.30
2014,10,12,07,00,6.30
2014,10,12,07,01,6.30
2014,10,12,07,02,6.30
2014,10,12,07,03,6.30
2014,10,12,07,04,6.30
2014,10,12,07,05,6.30
2014,10,12,07,06,6.30
2014,10,12,07,07,6.30
2014,10,12,07,08,6.30
2014,10,12,07,09,6.40
2014,10,12,07,10,6.40
2014,10,12,07,11,6.40
2014,10,12,07,12,6.40
2014,10,12,07,13,6.50
2014,10,12,07,14,6.50
2014,10,12,07,15,6.60
2014,10,12,07,16,6.70
2014,10,12,07,17,6.70
2014,10,12,07,18,6.70
2014,10,12,07,19,6.70
2014,10,12,07,20,6.70
2014,10,12,07,21,6.70
2014,10,12,07,22,6.70
2014,10,12,07,23,6.70
2014,10,12,07,24,6.70
2014,10,12,07,25,6.70
2014,10,12,07,26,6.70
2014,10,12,07,27,6.70
2014,10,12,07,28,6.70
2014,10,12,07,29,6.70
2014,10,12,07,30,6.70
2014,10,12,07,31,6.70
2014,10,12,07,32,6.70
2014,10,12,07,33,6.70
2014,10,12,07,34,6.80
2014,10,12,07,35,6.80
2014,10,12,07,36,6.80
2014,10,12,07,37,6.80
2014,10,12,07,38,6.80
2014,10,12,07,39,6.80
2014,10,12,07,40,6.80
2014,10,12,07,41,6.70
2014,10,12,07,42,6.70
2014,10,12,07,43,6.70
2014,10,12,07,44,6.70
2014,10,12,07,45,6.70
2014,10,12,07,46,6.60
2014,10,12,07,47,6.60
2014,10,12,07,48,6.60
2014,10,12,07,49,6.60
2014,10,12,07,50,6.60
2014,10,12,07,51,6.70
2014,10,12,07,52,6.70
2014,10,12,07,53,6.80
2014,10,12,07,54,6.80
2014,10,12,07,55,6.80
2014,10,12,07,56,6.90
2014,10,12,07,57,6.90
2014,10,12,07,58,6.90
2014,10,12,07,59,6.90
2014,10,12,08,00,6.90
2014,10,12,08,01,6.90
2014,10,12,08,02,6.90
2014,10,12,08,03,7.00
2014,10,12,08,04,7.00
2014,10,12,08,05,7.00
2014,10,12,08,06,7.00
2014,10,12,08,07,7.10
2014,10,12,08,08,7.10
2014,10,12,08,09,7.10
2014,10,12,08,10,7.10
2014,10,12,08,11,7.10
2014,10,12,08,12,7.10
2014,10,12,08,13,7.10
2014,10,12,08,14,7.10
2014,10,12,08,15,7.10
2014,10,12,08,16,7.10
2014,10,12,08,17,7.10
2014,10,12,08,18,7.10
2014,10,12,08,19,7.10
2014,10,12,08,20,7.10
2014,10,12,08,21,7.20
2014,10,12,08,22,7.20
2014,10,12,08,23,7.20
2014,10,12,08,24,7.20
2014,10,12,08,25,7.20
2014,10,12,08,26,7.20
2014,10,12,08,27,7.20
2014,10,12,08,28,7.30
2014,10,12,08,29,7.30
2014,10,12,08,30,7.30
2014,10,12,08,31,7.30
2014,10,12,08,32,7.30
2014,10,12,08,33,7.40
2014,10,12,08,34,7.40
2014,10,12,08,35,7.40
2014,10,12,08,36,7.40
2014,10,12,08,37,7.50
2014,10,12,08,38,7.50
2014,10,12,08,39,7.60
2014,10,12,08,40,7.60
2014,10,12,08,41,7.70
2014,10,12,08,42,7.70
2014,10,12,08,43,7.70
2014,10,12,08,44,7.80
2014,10,12,08,45,7.80
2014,10,12,08,46,7.80
2014,10,12,08,47,7.80
2014,10,12,08,48,7.90
2014,10,12,08,49,7.90
2014,10,12,08,50,7.90
2014,10,12,08,51,8.00
2014,10,12,08,52,8.00
2014,10,12,08,53,8.00
2014,10,12,08,54,8.10
2014,10,12,08,55,8.10
2014,10,12,08,56,8.10
2014,10,12,08,57,8.10
2014,10,12,08,58,8.10
2014,10,12,08,59,8.10
2014,10,12,09,00,8.20
2014,10,12,09,01,8.20
2014,10,12,09,02,8.20
2014,10,12,09,03,8.20
2014,10,12,09,04,8.20
2014,10,12,09,05,8.20
2014,10,12,09,06,8.30
2014,10,12,09,07,8.30
2014,10,12,09,08,8.30
2014,10,12,09,09,8.30
2014,10,12,09,10,8.40
2014,10,12,09,11,8.40
2014,10,12,09,12,8.40
2014,10,12,09,13,8.40
2014,10,12,09,14,8.40
2014,10,12,09,15,8.50
2014,10,12,09,16,8.50
2014,10,12,09,17,8.50
2014,10,12,09,18,8.60
2014,10,12,09,19,8.60
2014,10,12,09,20,8.60
2014,10,12,09,21,8.60
2014,10,12,09,22,8.60
2014,10,12,09,23,8.60
2014,10,12,09,24,8.70
2014,10,12,09,25,8.70
2014,10,12,09,26,8.70
2014,10,12,09,27,8.70
2014,10,12,09,28,8.70
2014,10,12,09,29,8.70
2014,10,12,09,30,8.70
2014,10,12,09,31,8.80
2014,10,12,09,32,8.80
2014,10,12,09,33,8.80
2014,10,12,09,34,8.90
2014,10,12,09,35,8.90
2014,10,12,09,36,8.90
2014,10,12,09,37,8.90
2014,10,12,09,38,8.90
2014,10,12,09,39,8.90
2014,10,12,09,40,8.90
2014,10,12,09,41,9.00
2014,10,12,09,42,9.00
2014,10,12,09,43,9.00
2014,10,12,09,44,9.00
2014,10,12,09,45,9.00
2014,10,12,09,46,9.10
2014,10,12,09,47,9.10
2014,10,12,09,48,9.10
2014,10,12,09,49,9.10
2014,10,12,09,50,9.10
2014,10,12,09,51,9.10
2014,10,12,09,52,9.10
2014,10,12,09,53,9.20
2014,10,12,09,54,9.20
2014,10,12,09,55,9.20
2014,10,12,09,56,9.20
2014,10,12,09,57,9.20
2014,10,12,09,58,9.20
2014,10,12,09,59,9.30
2014,10,12,10,00,9.30
2014,10,12,10,01,9.30
2014,10,12,10,02,9.30
2014,10,12,10,03,9.30
2014,10,12,10,04,9.30
2014,10,12,10,05,9.40
2014,10,12,10,06,9.40
2014,10,12,10,07,9.40
2014,10,12,10,08,9.40
2014,10,12,10,09,9.50
2014,10,12,10,10,9.50
2014,10,12,10,11,9.60
2014,10,12,10,12,9.60
2014,10,12,10,13,9.70
2014,10,12,10,14,9.70
2014,10,12,10,15,9.70
2014,10,12,10,16,9.80
2014,10,12,10,17,9.80
2014,10,12,10,18,9.80
2014,10,12,10,19,9.80
2014,10,12,10,20,9.90
2014,10,12,10,21,9.90
2014,10,12,10,22,10.00
2014,10,12,10,23,10.10
2014,10,12,10,24,10.10
2014,10,12,10,25,10.10
2014,10,12,10,26,10.20
2014,10,12,10,27,10.20
2014,10,12,10,28,10.20
2014,10,12,10,29,10.20
2014,10,12,10,30,10.20
2014,10,12,10,31,10.20
2014,10,12,10,32,10.30
2014,10,12,10,33,10.30
2014,10,12,10,34,10.30
2014,10,12,10,35,10.30
2014,10,12,10,36,10.30
2014,10,12,10,37,10.30
2014,10,12,10,38,10.30
2014,10,12,10,39,10.30
2014,10,12,10,40,10.30
2014,10,12,10,41,10.30
2014,10,12,10,42,10.40
2014,10,12,10,43,10.40
2014,10,12,10,44,10.40
2014,10,12,10,45,10.40
2014,10,12,10,46,10.40
2014,10,12,10,47,10.50
2014,10,12,10,48,10.50
2014,10,12,10,49,10.50
2014,10,12,10,50,10.50
2014,10,12,10,51,10.50
2014,10,12,10,52,10.50
2014,10,12,10,53,10.50
2014,10,12,10,54,10.50
2014,10,12,10,55,10.50
2014,10,12,10,56,10.50
2014,10,12,10,57,10.60
2014,10,12,10,58,10.60
2014,10,12,10,59,10.60
2014,10,12,11,00,10.70
2014,10,12,11,01,10.70
2014,10,12,11,02,10.70
2014,10,12,11,03,10.70
2014,10,12,11,04,10.70
2014,10,12,11,05,10.70
2014,10,12,11,06,10.80
2014,10,12,11,07,10.80
2014,10,12,11,08,10.80
2014,10,12,11,09,10.80
2014,10,12,11,10,10.80
2014,10,12,11,11,10.90
2014,10,12,11,12,10.90
2014,10,12,11,13,10.90
2014,10,12,11,14,11.00
2014,10,12,11,15,11.00
2014,10,12,11,16,11.10
2014,10,12,11,17,11.10
2014,10,12,11,18,11.10
2014,10,12,11,19,11.10
2014,10,12,11,20,11.10
2014,10,12,11,21,11.20
2014,10,12,11,22,11.10
2014,10,12,11,23,11.10
2014,10,12,11,24,11.20
2014,10,12,11,25,11.20
2014,10,12,11,26,11.20
2014,10,12,11,27,11.20
2014,10,12,11,28,11.20
2014,10,12,11,29,11.20
2014,10,12,11,30,11.20
2014,10,12,11,31,11.20
2014,10,12,11,32,11.20
2014,10,12,11,33,11.20
2014,10,12,11,34,11.30
2014,10,12,11,35,11.30
2014,10,12,11,36,11.30
2014,10,12,11,37,11.30
2014,10,12,11,38,11.30
2014,10,12,11,39,11.40
2014,10,12,11,40,11.40
2014,10,12,11,41,11.40
2014,10,12,11,42,11.40
2014,10,12,11,43,11.50
2014,10,12,11,44,11.50
2014,10,12,11,45,11.50
2014,10,12,11,46,11.50
2014,10,12,11,47,11.60
2014,10,12,11,48,11.60
2014,10,12,11,49,11.60
2014,10,12,11,50,11.60
2014,10,12,11,51,11.60
2014,10,12,11,52,11.60
2014,10,12,11,53,11.60
2014,10,12,11,54,11.70
2014,10,12,11,55,11.70
2014,10,12,11,56,11.70
2014,10,12,11,57,11.70
2014,10,12,11,58,11.70
2014,10,12,11,59,11.70
2014,10,12,12,00,11.70
2014,10,12,12,01,11.70
2014,10,12,12,02,11.70
2014,10,12,12,03,11.70
2014,10,12,12,04,11.80
2014,10,12,12,05,11.80
2014,10,12,12,06,11.80
2014,10,12,12,07,11.80
2014,10,12,12,08,11.80
2014,10,12,12,09,11.80
2014,10,12,12,10,11.80
2014,10,12,12,11,11.80
2014,10,12,12,12,11.80
2014,10,12,12,13,11.80
2014,10,12,12,14,11.80
2014,10,12,12,15,11.90
2014,10,12,12,16,11.90
2014,10,12,12,17,11.90
2014,10,12,12,18,11.90
2014,10,12,12,19,11.90
2014,10,12,12,20,11.90
2014,10,12,12,21,12.00
2014,10,12,12,22,12.00
2014,10,12,12,23,12.00
2014,10,12,12,24,12.00
2014,10,12,12,25,12.00
2014,10,12,12,26,12.10
2014,10,12,12,27,12.10
2014,10,12,12,28,12.10
2014,10,12,12,29,12.10
2014,10,12,12,30,12.10
2014,10,12,12,31,12.20
2014,10,12,12,32,12.20
2014,10,12,12,33,12.20
2014,10,12,12,34,12.20
2014,10,12,12,35,12.20
2014,10,12,12,36,12.20
2014,10,12,12,37,12.20
2014,10,12,12,38,12.20
2014,10,12,12,39,12.20
2014,10,12,12,40,12.20
2014,10,12,12,41,12.20
2014,10,12,12,42,12.20
2014,10,12,12,43,12.20
2014,10,12,12,44,12.20
2014,10,12,12,45,12.20
2014,10,12,12,46,12.20
2014,10,12,12,47,12.20
2014,10,12,12,48,12.10
2014,10,12,12,49,12.10
2014,10,12,12,50,12.10
2014,10,12,12,51,12.10
2014,10,12,12,52,12.10
2014,10,12,12,53,12.10
2014,10,12,12,54,12.10
2014,10,12,12,55,12.10
2014,10,12,12,56,12.10
2014,10,12,12,57,12.10
2014,10,12,12,58,12.10
2014,10,12,12,59,12.10
2014,10,12,13,00,12.10
2014,10,12,13,01,12.10
2014,10,12,13,02,12.10
2014,10,12,13,03,12.10
2014,10,12,13,04,12.10
2014,10,12,13,05,12.10
2014,10,12,13,06,12.10
2014,10,12,13,07,12.10
2014,10,12,13,08,12.10
2014,10,12,13,09,12.10
2014,10,12,13,10,12.10
2014,10,12,13,11,12.10
2014,10,12,13,12,12.10
2014,10,12,13,13,12.10
2014,10,12,13,14,12.10
2014,10,12,13,15,12.10
2014,10,12,13,16,12.10
2014,10,12,13,17,12.10
2014,10,12,13,18,12.10
2014,10,12,13,19,12.00
2014,10,12,13,20,12.00
2014,10,12,13,21,12.00
2014,10,12,13,22,12.00
2014,10,12,13,23,11.90
2014,10,12,13,24,11.90
2014,10,12,13,25,11.90
2014,10,12,13,26,11.90
2014,10,12,13,27,11.90
2014,10,12,13,28,11.90
2014,10,12,13,29,11.90
2014,10,12,13,30,11.90
2014,10,12,13,31,11.90
2014,10,12,13,32,11.90
2014,10,12,13,33,11.90
2014,10,12,13,34,11.90
2014,10,12,13,35,11.90
2014,10,12,13,36,11.90
2014,10,12,13,37,11.90
2014,10,12,13,38,11.90
2014,10,12,13,39,11.80
2014,10,12,13,40,11.80
2014,10,12,13,41,11.80
2014,10,12,13,42,11.80
2014,10,12,13,43,11.90
2014,10,12,13,44,11.90
2014,10,12,13,45,11.90
2014,10,12,13,46,11.90
2014,10,12,13,47,11.90
2014,10,12,13,48,11.90
2014,10,12,13,49,11.90
2014,10,12,13,50,11.90
2014,10,12,13,51,11.90
2014,10,12,13,52,11.90
2014,10,12,13,53,11.90
2014,10,12,13,54,11.90
2014,10,12,13,55,11.90
2014,10,12,13,56,11.90
2014,10,12,13,57,11.90
2014,10,12,13,58,11.90
2014,10,12,13,59,11.80
2014,10,12,14,00,11.80
2014,10,12,14,01,11.80
2014,10,12,14,02,11.80
2014,10,12,14,03,11.80
2014,10,12,14,04,11.80
2014,10,12,14,05,11.80
2014,10,12,14,06,11.80
2014,10,12,14,07,11.80
2014,10,12,14,08,11.80
2014,10,12,14,09,11.80
2014,10,12,14,10,11.80
2014,10,12,14,11,11.80
2014,10,12,14,12,11.80
2014,10,12,14,13,11.80
2014,10,12,14,14,11.80
2014,10,12,14,15,11.80
2014,10,12,14,16,11.80
2014,10,12,14,17,11.80
2014,10,12,14,18,11.80
2014,10,12,14,19,11.80
2014,10,12,14,20,11.80
2014,10,12,14,21,11.80
2014,10,12,14,22,11.80
2014,10,12,14,23,11.80
2014,10,12,14,24,11.80
2014,10,12,14,25,11.80
2014,10,12,14,26,11.80
2014,10,12,14,27,11.80
2014,10,12,14,28,11.80
2014,10,12,14,29,11.80
2014,10,12,14,30,11.80
2014,10,12,14,31,11.80
2014,10,12,14,32,11.80
2014,10,12,14,33,11.80
2014,10,12,14,34,11.80
2014,10,12,14,35,11.80
2014,10,12,14,36,11.80
2014,10,12,14,37,11.80
2014,10,12,14,38,11.80
2014,10,12,14,39,11.80
2014,10,12,14,40,11.80
2014,10,12,14,41,11.80
2014,10,12,14,42,11.80
2014,10,12,14,43,11.80
2014,10,12,14,44,11.80
2014,10,12,14,45,11.80
2014,10,12,14,46,11.80
2014,10,12,14,47,11.80
2014,10,12,14,48,11.80
2014,10,12,14,49,11.80
2014,10,12,14,50,11.80
2014,10,12,14,51,11.80
2014,10,12,14,52,11.80
2014,10,12,14,53,11.80
2014,10,12,14,54,11.80
2014,10,12,14,55,11.80
2014,10,12,14,56,11.80
2014,10,12,14,57,11.80
2014,10,12,14,58,11.80
2014,10,12,14,59,11.90
2014,10,12,15,00,11.90
2014,10,12,15,01,11.90
2014,10,12,15,02,11.90
2014,10,12,15,03,11.90
2014,10,12,15,04,11.90
2014,10,12,15,05,11.90
2014,10,12,15,06,11.90
2014,10,12,15,07,11.90
2014,10,12,15,08,11.90
2014,10,12,15,09,11.90
2014,10,12,15,10,11.90
2014,10,12,15,11,11.90
2014,10,12,15,12,11.90
2014,10,12,15,13,11.90
2014,10,12,15,14,11.90
2014,10,12,15,15,11.90
2014,10,12,15,16,11.90
2014,10,12,15,17,11.90
2014,10,12,15,18,12.00
2014,10,12,15,19,12.00
2014,10,12,15,20,12.00
2014,10,12,15,21,12.00
2014,10,12,15,22,12.00
2014,10,12,15,23,12.00
2014,10,12,15,24,12.00
2014,10,12,15,25,11.90
2014,10,12,15,26,12.00
2014,10,12,15,27,12.00
2014,10,12,15,28,12.00
2014,10,12,15,29,12.00
2014,10,12,15,30,12.00
2014,10,12,15,31,12.00
2014,10,12,15,32,12.00
2014,10,12,15,33,12.10
2014,10,12,15,34,12.10
2014,10,12,15,35,12.10
2014,10,12,15,36,12.10
2014,10,12,15,37,12.10
2014,10,12,15,38,12.10
2014,10,12,15,39,12.10
2014,10,12,15,40,12.10
2014,10,12,15,41,12.10
2014,10,12,15,42,12.10
2014,10,12,15,43,12.10
2014,10,12,15,44,12.10
2014,10,12,15,45,12.10
2014,10,12,15,46,12.10
2014,10,12,15,47,12.10
2014,10,12,15,48,12.10
2014,10,12,15,49,12.10
2014,10,12,15,50,12.10
2014,10,12,15,51,12.10
2014,10,12,15,52,12.10
2014,10,12,15,53,12.10
2014,10,12,15,54,12.10
2014,10,12,15,55,12.10
2014,10,12,15,56,12.10
2014,10,12,15,57,12.10
2014,10,12,15,58,12.10
2014,10,12,15,59,12.10
2014,10,12,16,00,12.10
2014,10,12,16,01,12.10
2014,10,12,16,02,12.10
2014,10,12,16,03,12.10
2014,10,12,16,04,12.10
2014,10,12,16,05,12.10
2014,10,12,16,06,12.10
2014,10,12,16,07,12.10
2014,10,12,16,08,12.10
2014,10,12,16,09,12.10
2014,10,12,16,10,12.10
2014,10,12,16,11,12.10
2014,10,12,16,12,12.10
2014,10,12,16,13,12.00
2014,10,12,16,14,12.00
2014,10,12,16,15,12.00
2014,10,12,16,16,12.00
2014,10,12,16,17,11.90
2014,10,12,16,18,11.90
2014,10,12,16,19,11.90
2014,10,12,16,20,12.00
2014,10,12,16,21,11.90
2014,10,12,16,22,12.00
2014,10,12,16,23,12.00
2014,10,12,16,24,12.00
2014,10,12,16,25,12.00
2014,10,12,16,26,12.00
2014,10,12,16,27,11.90
2014,10,12,16,28,11.90
2014,10,12,16,29,11.90
2014,10,12,16,30,11.90
2014,10,12,16,31,11.90
2014,10,12,16,32,11.90
2014,10,12,16,33,11.90
2014,10,12,16,34,11.90
2014,10,12,16,35,11.90
2014,10,12,16,36,11.90
2014,10,12,16,37,11.90
2014,10,12,16,38,11.90
2014,10,12,16,39,11.90
2014,10,12,16,40,11.90
2014,10,12,16,41,11.90
2014,10,12,16,42,11.90
2014,10,12,16,43,11.90
2014,10,12,16,44,11.90
2014,10,12,16,45,11.90
2014,10,12,16,46,11.90
2014,10,12,16,47,11.90
2014,10,12,16,48,11.90
2014,10,12,16,49,11.80
2014,10,12,16,50,11.80
2014,10,12,16,51,11.80
2014,10,12,16,52,11.80
2014,10,12,16,53,11.80
2014,10,12,16,54,11.80
2014,10,12,16,55,11.80
2014,10,12,16,56,11.80
2014,10,12,16,57,11.80
2014,10,12,16,58,11.80
2014,10,12,16,59,11.80
2014,10,12,17,00,11.80
2014,10,12,17,01,11.80
2014,10,12,17,02,11.80
2014,10,12,17,03,11.80
2014,10,12,17,04,11.80
2014,10,12,17,05,11.80
2014,10,12,17,06,11.80
2014,10,12,17,07,11.80
2014,10,12,17,08,11.80
2014,10,12,17,09,11.80
2014,10,12,17,10,11.80
2014,10,12,17,11,11.80
2014,10,12,17,12,11.80
2014,10,12,17,13,11.80
2014,10,12,17,14,11.80
2014,10,12,17,15,11.80
2014,10,12,17,16,11.80
2014,10,12,17,17,11.80
2014,10,12,17,18,11.80
2014,10,12,17,19,11.80
2014,10,12,17,20,11.80
2014,10,12,17,21,11.80
2014,10,12,17,22,11.80
2014,10,12,17,23,11.80
2014,10,12,17,24,11.80
2014,10,12,17,25,11.80
2014,10,12,17,26,11.80
2014,10,12,17,27,11.80
2014,10,12,17,28,11.80
2014,10,12,17,29,11.80
2014,10,12,17,30,11.80
2014,10,12,17,31,11.80
2014,10,12,17,32,11.80
2014,10,12,17,33,11.80
2014,10,12,17,34,11.80
2014,10,12,17,35,11.80
2014,10,12,17,36,11.80
2014,10,12,17,37,11.80
2014,10,12,17,38,11.80
2014,10,12,17,39,11.80
2014,10,12,17,40,11.80
2014,10,12,17,41,11.80
2014,10,12,17,42,11.80
2014,10,12,17,43,11.80
2014,10,12,17,44,11.70
2014,10,12,17,45,11.70
2014,10,12,17,46,11.70